Ephrata, WA

5:51 PM PST on February 09, 2016 (GMT -0800)
Ephrata Municipal

Weather History for KEPH - April, 2013

Change the Weather History Date:

Friday, April 5, 2013

  Actual Average Record
Temperature  
Mean Temperature 53 °F 48 °F  
Max Temperature 66 °F 60 °F 76 °F (1977)
Min Temperature 39 °F 36 °F 24 °F (2003)
Degree Days  
Heating Degree Days 12 17  
Month to date heating degree days 53 86  
Since 1 July heating degree days 4947 5343  
Cooling Degree Days 0 0  
Month to date cooling degree days 0 0  
Year to date cooling degree days 0 0  
Growing Degree Days 2 (Base 50)    
Moisture  
Dew Point 42 °F    
Average Humidity 69    
Maximum Humidity 100    
Minimum Humidity 37    
Precipitation  
Precipitation T in 0.02 in 0.37 in (1984)
Month to date precipitation 0.11 0.10  
Year to date precipitation 1.00 2.43  
Sea Level Pressure  
Sea Level Pressure 29.79 in    
Wind  
Wind Speed 10 mph (SW)    
Max Wind Speed 23 mph    
Max Gust Speed 29 mph    
Visibility 9 miles    
Events Rain    
T = Trace of Precipitation, MM = Missing Value Source: NWS Daily Summary

Daily Weather History Graph

Daily Weather History Graph

Search for Another Location

Airport or City:

Trip Planner

Search our weather history database for the weather conditions in past years. The results will help you decide how hot, cold, wet, or windy it might be!

Date:

Astronomy

Apr. 05, 2013 Rise Set
Actual Time 6:28 AM PDT 7:33 PM PDT
Civil Twilight 5:57 AM PDT 8:05 PM PDT
Nautical Twilight 5:19 AM PDT 8:42 PM PDT
Astronomical Twilight 4:39 AM PDT 9:22 PM PDT
Moon 3:57 AM PDT (4/5) 2:46 PM PDT (4/5)
Length of Visible Light 14h 08m
Length of Day
13h 05m
Waning Crescent, 22% of the Moon is Illuminated
Apr 5
Waning Crescent
Apr 10
New
Apr 18
First Quarter
Apr 25
Full
May 2
Last Quarter

Hourly Weather History & Observations

Time (PDT) Temp. Windchill Dew Point Humidity Pressure Visibility Wind Dir Wind Speed Gust Speed Precip Events Conditions
12:08 AM 44.6 °F 39.7 °F 42.8 °F 93% 29.74 in 0.8 mi SSW 9.2 mph - N/A   Clear
12:27 AM 42.8 °F 37.5 °F 42.8 °F 100% 29.74 in 1.0 mi SSW 9.2 mph - N/A   Clear
12:36 AM 44.6 °F 39.7 °F 42.8 °F 93% 29.74 in 3.0 mi SSW 9.2 mph - N/A   Clear
12:53 AM 43.0 °F 38.8 °F 42.1 °F 97% 29.76 in 7.0 mi SW 6.9 mph - N/A   Clear
1:53 AM 42.1 °F 38.4 °F 39.9 °F 92% 29.77 in 10.0 mi SW 5.8 mph - N/A   Clear
2:53 AM 39.9 °F 33.9 °F 37.9 °F 93% 29.76 in 10.0 mi South 9.2 mph - N/A   Clear
3:53 AM 42.1 °F 39.2 °F 39.9 °F 92% 29.76 in 10.0 mi WSW 4.6 mph - N/A   Clear
4:53 AM 42.1 °F - 39.0 °F 89% 29.78 in 10.0 mi Calm Calm - N/A   Clear
5:53 AM 45.0 °F 40.1 °F 41.0 °F 86% 29.77 in 10.0 mi SW 9.2 mph - N/A   Overcast
6:53 AM 44.1 °F 39.5 °F 42.1 °F 93% 29.78 in 10.0 mi SSW 8.1 mph - N/A   Overcast
7:53 AM 46.0 °F 41.4 °F 43.0 °F 89% 29.78 in 10.0 mi SSW 9.2 mph - N/A   Scattered Clouds
8:53 AM 50.0 °F - 44.1 °F 80% 29.79 in 10.0 mi SSW 11.5 mph - N/A   Overcast
9:53 AM 52.0 °F - 45.0 °F 77% 29.80 in 10.0 mi SSW 13.8 mph - N/A   Clear
10:53 AM 54.0 °F - 45.0 °F 72% 29.82 in 10.0 mi SW 12.7 mph - N/A   Partly Cloudy
11:53 AM 57.0 °F - 44.1 °F 62% 29.82 in 10.0 mi SSW 16.1 mph - N/A   Clear
12:53 PM 60.1 °F - 43.0 °F 53% 29.82 in 10.0 mi SW 17.3 mph - N/A   Clear
1:53 PM 62.1 °F - 43.0 °F 50% 29.82 in 10.0 mi SSW 10.4 mph - N/A   Partly Cloudy
2:53 PM 64.9 °F - 39.9 °F 40% 29.81 in 10.0 mi WSW 13.8 mph 23.0 mph N/A   Partly Cloudy
3:53 PM 64.9 °F - 37.9 °F 37% 29.81 in 10.0 mi West 12.7 mph 23.0 mph N/A   Clear
4:53 PM 63.0 °F - 39.9 °F 43% 29.81 in 10.0 mi SW 10.4 mph - N/A   Clear
5:53 PM 61.0 °F - 39.9 °F 46% 29.81 in 10.0 mi SW 16.1 mph - N/A   Clear
6:53 PM 57.0 °F - 42.1 °F 57% 29.81 in 10.0 mi SSW 11.5 mph - N/A   Partly Cloudy
7:53 PM 55.0 °F - 43.0 °F 64% 29.81 in 10.0 mi WSW 8.1 mph - N/A   Overcast
8:53 PM 54.0 °F - 43.0 °F 66% 29.82 in 10.0 mi WSW 6.9 mph - 0.00 in Rain Light Rain
9:53 PM 52.0 °F - 41.0 °F 66% 29.82 in 10.0 mi South 9.2 mph - 0.00 in   Overcast
10:53 PM 50.0 °F - 43.0 °F 77% 29.82 in 10.0 mi SSW 6.9 mph - 0.00 in   Overcast
11:53 PM 50.0 °F - 41.0 °F 71% 29.81 in 10.0 mi South 8.1 mph - N/A   Overcast